sat.trackr.live / text

‹ back to catalog

STARLINK-6352

NORAD 56782 · 2023-078R

PAYLOAD ACTIVE UNKNOWN

§ Identity

Operator
Country
US
Launch date
2023-05-31
Launch site
AFWTR
Launch vehicle
Mass (kg)
RCS (m²)

Purposes: comms

External: N2YO · Heavens-Above · Gunter

§ Orbital elements

Epoch: 2026-05-25T05:15:34.864992Z

Period
96.11 min
Inclination
69.9987°
Eccentricity
0.0003158
Mean motion
14.98331814 rev/d
Perigee alt
569.9 km
Apogee alt
574.2 km
Semi-major
6,950.2 km
B*
2.5068e-5
RAAN
131.6300°
Arg perigee
269.8527°
Mean anomaly
90.2270°
Rev number
16,463

§ Raw data

STARLINK-63521 56782U 23078R   26145.21915353  .00000206  00000+0  25068-4 0  99972 56782  69.9987 131.6300 0003158 269.8527  90.2270 14.98331814164630

JSON: /api/v1/satellites/56782 · /tle

For live sub-satellite position, see the globe view (requires WebGL).

§ Visibility from observer

Set your observer location to see the next 7 days of passes ≥ 10°. The values pass through the URL so the page stays shareable.

No JS? Fill the form by hand. The geolocation button needs JavaScript.